Bodensee (Kressbronn): 6,7°C  -  Teich der Wetterzentrale Bad Schussenried: 5,0°C  
01.03.2021Höhe
ü. NN
ZeitTemperatur (°C)Nieder-
schlag
Luft-
feuchte
Luft-
druck
Wind
StationaktuellMinimumMaximumaktuellMaximum
Aldingen654 m05:36-5,4-5,5 (05:19)-1,5 (15:10)0,0 l/m²88%1032,90,0 km/h (0 Bft) O-NO27,8 km/h (4 Bft) O-SO (13:39)
Allmendingen541 m05:35-5,5-5,5 (04:55)-3,3 (15:40)0,0 l/m²89%1032,50,0 km/h (0 Bft) O-NO38,6 km/h (5 Bft) O-NO (14:25)
Altshausen574 m05:35-2,1-2,1 (05:35)0,1 (01:22)0,0 l/m²79%1030,21,6 km/h (1 Bft) N-NO11,3 km/h (2 Bft) N-NO (01:28)
Amstetten-Reutti663 m05:35-1,9-1,9 (05:35)0,3 (15:45)0,0 l/m²90%1032,412,9 km/h (3 Bft) O-SO38,6 km/h (5 Bft) O-NO (14:40)
Amtzell564 m05:39-1,7-2,1 (04:15)0,4 (00:03)0,0 l/m²87%1033,14,7 km/h (1 Bft) N-NO14,5 km/h (3 Bft) NO (04:50)
Amtzell-Grenis677 m05:35-2,1-2,1 (05:35)0,9 (00:00)0,0 l/m²68%1032,96,4 km/h (2 Bft) N-NO14,5 km/h (3 Bft) N-NO (03:50)
Aulendorf570 m05:35-0,6-0,6 (05:30)0,9 (01:41)0,0 l/m²71%1031,19,7 km/h (2 Bft) NO16,1 km/h (3 Bft) N-NO (04:17)
Bachhagel489 m05:35-4,7-4,9 (05:32)-2,6 (00:03)0,0 l/m²93%1036,90,0 km/h (0 Bft) SO3,2 km/h (1 Bft) SO (01:59)
Bad Krozingen233 m05:35-0,2-0,7 (07:35)2,4 (16:35)0,0 l/m²94%1032,21,7 km/h (1 Bft) SO17,3 km/h (3 Bft) N-NW (16:45)
Bad Krozingen-Hausen199 m05:35-1,6-1,9 (05:05)0,6 (15:40)0,0 l/m²94%1031,00,0 km/h (0 Bft) W-NW18,3 km/h (3 Bft) O-NO (14:25)
Bad Krozingen-Tunsel229 m05:35-1,8-1,8 (06:25)1,8 (16:05)0,0 l/m²92%1030,21,9 km/h (1 Bft) W-SW19,1 km/h (3 Bft) NO (17:15)
Bad Saulgau595 m05:35-2,0-2,1 (05:30)-0,3 (15:00)0,0 l/m²90%1030,70,0 km/h (0 Bft) N25,7 km/h (4 Bft) O (12:35)
Bad Saulgau, Mannsgrab588 m05:38-2,1-3,4 (02:00)0,3 (00:49)0,0 l/m²84%1033,47,9 km/h (2 Bft) NW11,2 km/h (2 Bft) N-NO (05:25)
Bad Saulgau, SFZ Kälberweide594 m05:39-1,6-2,1 (05:08)-0,8 (02:42)0,0 l/m²89%1032,84,7 km/h (1 Bft) N6,5 km/h (2 Bft) N-NW (04:57)
Bad Saulgau-Lampertsweiler627 m05:350,4-1,2 (03:45)2,9 (00:00)0,0 l/m²82%1034,00,0 km/h (0 Bft) N0,0 km/h (0 Bft) N (00:00)
Bad Schussenried572 m05:35-1,3-1,3 (04:45)0,8 (00:00)0,0 l/m²90%1030,23,2 km/h (1 Bft) NW9,7 km/h (2 Bft) N (03:05)
Baindt462 m05:35-2,6-2,8 (05:03)1,2 (02:20)0,0 l/m²89%1032,70,0 km/h (0 Bft) O4,8 km/h (1 Bft) O (04:10)
Bergatreute615 m05:35-1,3-1,4 (02:10)-0,2 (00:45)0,0 l/m²89%1029,50,0 km/h (0 Bft) NO0,0 km/h (0 Bft) NO (00:00)
Biberach (Riss), Boehringer533 m06:30-2,4-2,5 (06:30)0,4 (00:00)0,0 l/m²93%1031,01,8 km/h (1 Bft) N-NW9,7 km/h (2 Bft) N-NW (04:50)
Biberach (Riss), Realschule553 m05:35-1,6-1,6 (04:35)0,8 (00:00)0,0 l/m²89%1032,80,0 km/h (0 Bft) NO6,4 km/h (2 Bft) N-NO (03:50)
Burgrieden523 m05:35-2,2-2,2 (05:35)0,4 (00:00)0,0 l/m²85%1032,10,0 km/h (0 Bft) NO0,0 km/h (0 Bft) N (00:00)
Burgrieden-Hochstetten510 m05:35-4,1-4,1 (05:25)-0,8 (15:15)0,0 l/m²93%1032,50,0 km/h (0 Bft) O-SO30,6 km/h (5 Bft) O (12:30)
Donauwörth411 m05:39-1,7-1,8 (05:03)0,4 (00:00)0,0 l/m²86%1032,70,0 km/h (0 Bft) N-NW0,0 km/h (0 Bft) N-NW (00:00)
Ebersbach579 m05:35-1,1-1,1 (05:35)1,1 (00:00)0,0 l/m²87%1032,50,0 km/h (0 Bft) NO14,5 km/h (3 Bft) NO (03:45)
Ebersbach-Boos605 m05:35-0,7-0,9 (05:20)1,6 (00:00)0,0 l/m²88%1032,016,1 km/h (3 Bft) O-NO20,9 km/h (4 Bft) O-NO (04:45)
Ebersbach-Menzenweiler661 m05:35-1,1-1,1 (05:35)1,9 (00:00)0,0 l/m²89%1032,117,7 km/h (3 Bft) NO24,1 km/h (4 Bft) O-NO (00:30)
Ehingen535 m02:10-3,3-3,5 (01:35)-2,7 (00:00)0,0 l/m²85%1033,10,0 km/h (0 Bft) W4,8 km/h (1 Bft) W (01:35)
Erlenmoos645 m05:35-1,0-1,1 (04:55)1,6 (01:05)0,0 l/m²79%1031,73,2 km/h (1 Bft) O-NO9,7 km/h (2 Bft) O (00:40)
Ertingen569 m05:35-0,7-0,7 (05:25)0,6 (02:30)0,0 l/m²85%1031,96,4 km/h (2 Bft) N11,3 km/h (2 Bft) N (04:10)
Friedrichshafen405 m05:35-0,4-0,4 (05:25)2,8 (14:40)0,0 l/m²86%1032,36,4 km/h (2 Bft) NO22,5 km/h (4 Bft) NO (08:35)
Günzburg443 m05:35-3,5-3,7 (05:05)-1,7 (00:00)0,0 l/m²89%1030,10,0 km/h (0 Bft) NO0,0 km/h (0 Bft) NO (00:00)
Hochdorf-Appendorf537 m05:35-4,1-4,9 (02:30)-3,0 (00:50)0,0 l/m²72%1032,10,0 km/h (0 Bft) NW6,4 km/h (2 Bft) O-NO (01:50)
Höchsten802 m05:35-1,3-1,3 (05:25)1,1 (00:00)0,0 l/m²86%1029,719,3 km/h (3 Bft) N-NO25,7 km/h (4 Bft) N-NO (00:00)
Horgenzell618 m05:35-0,7-0,8 (05:35)1,7 (00:00)0,0 l/m²84%1029,98,0 km/h (2 Bft) N16,1 km/h (3 Bft) NO (01:00)
Hoßkirch632 m05:35-3,2-3,3 (05:05)0,9 (00:20)0,0 l/m²90%1030,60,0 km/h (0 Bft) O-NO12,9 km/h (3 Bft) O-NO (01:30)
Hüfingen682 m05:35-5,9-5,9 (05:33)-2,9 (00:00)0,0 l/m²91%1029,20,0 km/h (0 Bft) SW4,7 km/h (1 Bft) SW (00:05)
Immendingen750 m05:39-1,7-2,7 (03:25)-0,4 (00:00)0,0 l/m²88%1,10,0 km/h (0 Bft) O-NO6,5 km/h (2 Bft) N-NO (04:14)
Isny, Am Dreifingerbach695 m05:35-2,4-2,6 (05:10)0,1 (00:00)0,0 l/m²93%1030,80,0 km/h (0 Bft) O-NO3,2 km/h (1 Bft) O-NO (01:55)
Isny, Weidachweg706 m05:35-3,0-3,4 (05:00)-0,4 (00:00)0,0 l/m²90%1033,10,0 km/h (0 Bft) N-NO6,4 km/h (2 Bft) O-SO (03:15)
Kappel-Grafenhausen163 m05:38-0,7-0,8 (04:57)4,1 (00:00)0,0 l/m²90%1029,90,0 km/h (0 Bft) NO4,8 km/h (1 Bft) NO (05:06)
Kirchdorf an der Iller551 m05:36-3,8-4,1 (05:23)-1,5 (00:00)0,0 l/m²92%1033,80,0 km/h (0 Bft) O6,5 km/h (2 Bft) S-SO (00:09)
Kißlegg-Staibshof709 m05:35-1,1-1,5 (04:55)1,3 (00:40)0,0 l/m²90%1031,80,0 km/h (0 Bft) O-NO0,0 km/h (0 Bft) NO (00:00)
Kressbronn398 m05:38-2,4-2,4 (05:34)0,8 (00:00)0,0 l/m²90%1031,00,0 km/h (0 Bft) N-NO4,8 km/h (1 Bft) N-NO (00:18)
Kristberg im Montafon (AT)1425 m05:39-- (-)0,8 (01:00)0,0 l/m²-1032,90,0 km/h (0 Bft) N0,0 km/h (0 Bft) N (01:00)
Laupheim500 m05:35-1,7-1,8 (05:30)1,6 (00:00)0,0 l/m²84%1031,50,0 km/h (0 Bft) N3,2 km/h (1 Bft) NO (02:55)
Leutkirch-Heggelbach670 m05:35-2,5-2,5 (05:35)-0,3 (00:00)0,0 l/m²90%1030,74,8 km/h (1 Bft) N11,3 km/h (2 Bft) N-NO (04:20)
Lindau-Insel420 m05:35-0,1-0,1 (05:30)2,6 (16:40)0,0 l/m²86%1031,50,0 km/h (0 Bft) O-NO19,3 km/h (3 Bft) W (12:15)
Lindau-Stadt412 m05:35-0,9-0,9 (05:35)2,2 (16:25)0,0 l/m²87%1031,71,6 km/h (1 Bft) NO19,3 km/h (3 Bft) S-SW (13:05)
Maierhöfen im Allgäu733 m05:35-4,2-4,2 (05:30)-0,7 (00:00)0,0 l/m²92%1031,70,0 km/h (0 Bft) S4,8 km/h (1 Bft) NO (00:00)
Maselheim543 m05:35-4,1-4,1 (05:25)-2,0 (00:00)0,0 l/m²90%1032,40,0 km/h (0 Bft) S-SO4,8 km/h (1 Bft) N (00:05)
Maselheim-Sulmingen548 m05:35-3,7-4,2 (05:10)-1,6 (15:00)0,0 l/m²92%1033,80,0 km/h (0 Bft) O-NO32,2 km/h (5 Bft) O (13:20)
Mietingen-Baltringen528 m05:35-3,2-3,4 (05:25)0,6 (00:00)0,0 l/m²88%1033,30,0 km/h (0 Bft) O4,8 km/h (1 Bft) O (03:45)
Mindelheim-Apfeltrach620 m05:36-4,7-4,7 (05:24)-1,1 (00:00)0,0 l/m²89%1033,00,0 km/h (0 Bft) O-NO3,2 km/h (1 Bft) O-NO (01:19)
Neresheim552 m05:00-4,7-4,7 (05:00)-2,0 (00:00)0,0 l/m²93%1050,00,0 km/h (0 Bft) O0,0 km/h (0 Bft) O (05:00)
Neuhausen am Rheinfall (CH)428 m05:391,31,2 (05:32)4,1 (00:16)0,0 l/m²74%1030,11,0 km/h (0 Bft) NW1,0 km/h (0 Bft) NW (00:00)
Neukirch570 m05:35-1,3-1,3 (05:30)1,5 (15:15)0,0 l/m²88%1031,44,8 km/h (1 Bft) N-NO25,7 km/h (4 Bft) N (13:35)
Ochsenhausen, Birkenstraße583 m05:39-4,2-4,2 (05:34)-1,4 (00:00)0,0 l/m²85%1035,6- (0 Bft) N- (0 Bft) N (-)
Ochsenhausen, Siechberg632 m05:39-3,1- (-)0,4 (01:00)0,0 l/m²87%-0,0 km/h (0 Bft) N-NO7,9 km/h (2 Bft) N-NO (01:00)
Ochsenhausen, Unt. Wiesen575 m05:35-4,1-4,3 (03:45)-1,8 (00:00)0,0 l/m²90%1033,80,0 km/h (0 Bft) S4,8 km/h (1 Bft) S (00:15)
Opfenbach-Göritz561 m05:35-3,8-3,8 (05:30)-0,5 (00:00)0,0 l/m²89%1029,80,0 km/h (0 Bft) NO6,5 km/h (2 Bft) NO (00:16)
Ostrach619 m05:35-3,4-3,4 (05:20)-1,1 (01:50)0,0 l/m²92%1030,40,0 km/h (0 Bft) NW6,4 km/h (2 Bft) W-NW (02:50)
Ravensburg, Goethestraße428 m05:35-0,1-0,1 (04:35)2,5 (00:00)0,0 l/m²86%1031,18,0 km/h (2 Bft) NO14,5 km/h (3 Bft) NO (00:30)
Ravensburg, Springerstraße441 m05:35-0,2-0,2 (05:20)2,0 (00:00)0,0 l/m²73%1030,10,0 km/h (0 Bft) W0,0 km/h (0 Bft) S (00:00)
Ravensburg-Oberzell422 m05:35-1,3-1,4 (05:12)2,6 (00:00)0,0 l/m²84%1032,43,2 km/h (1 Bft) NO14,5 km/h (3 Bft) NO (00:45)
Ravensburg-Weißenau426 m05:37-0,8-0,8 (05:06)1,9 (00:00)0,0 l/m²85%1032,10,0 km/h (0 Bft) NW9,7 km/h (2 Bft) N-NW (02:13)
Ravensburg-Wernsreute511 m05:35-1,0-1,1 (06:45)2,1 (15:15)0,0 l/m²87%1034,38,0 km/h (2 Bft) N33,8 km/h (5 Bft) N (07:10)
Reichenbach an der Fils343 m05:35-2,2-2,3 (05:15)0,3 (00:00)0,0 l/m²86%1034,51,6 km/h (1 Bft) O4,8 km/h (1 Bft) O (02:45)
Reinstetten559 m05:35-4,8-4,8 (05:30)-2,2 (00:00)0,0 l/m²91%1032,90,0 km/h (0 Bft) NO4,8 km/h (1 Bft) NO (03:40)
Riedlingen530 m05:35-1,7-1,8 (04:05)0,2 (00:00)0,0 l/m²88%1032,10,0 km/h (0 Bft) NO6,4 km/h (2 Bft) NO (02:25)
Rißtissen489 m05:35-2,1-2,1 (05:30)1,2 (00:00)0,0 l/m²89%1029,80,0 km/h (0 Bft) O-NO0,0 km/h (0 Bft) O (00:00)
Rottweil-Hausen681 m05:37-3,3-3,4 (05:00)-0,1 (00:00)0,0 l/m²88%1033,11,4 km/h (1 Bft) N-NW6,5 km/h (2 Bft) N-NW (02:00)
Schemmerhofen520 m05:350,00,0 (00:00)0,0 (00:00)0,0 l/m²0%1028,90,0 km/h (0 Bft) N0,0 km/h (0 Bft) N (00:00)
Schwörstadt304 m05:370,50,5 (05:36)3,1 (00:37)0,0 l/m²85%1032,00,0 km/h (0 Bft) NO0,0 km/h (0 Bft) N (00:00)
Silbertal im Montafon (AT)884 m05:37-2,3-2,4 (04:28)-1,6 (00:00)0,0 l/m²83%1035,00,0 km/h (0 Bft) SO0,0 km/h (0 Bft) SO (00:00)
Tettnang466 m05:38-1,4-1,4 (05:34)3,2 (00:00)0,0 l/m²87%1031,50,0 km/h (0 Bft) N-NO14,4 km/h (3 Bft) O-SO (00:14)
Tettnang-Unterwolfertsweiler480 m05:36-1,1-1,2 (05:14)2,4 (15:24)0,0 l/m²90%1030,80,0 km/h (0 Bft) NO19,3 km/h (3 Bft) N-NO (15:32)
Tuttlingen648 m05:30-4,0-4,0 (05:25)-0,7 (00:00)0,0 l/m²88%1028,60,0 km/h (0 Bft) S-SO0,0 km/h (0 Bft) SO (00:00)
Tuttlingen, Möhringer-Vorstadt711 m05:35-4,1-4,1 (05:20)-0,4 (14:35)0,0 l/m²92%1031,90,0 km/h (0 Bft) S-SW24,1 km/h (4 Bft) N-NW (09:45)
Ummendorf547 m05:35-2,9-3,0 (05:30)-0,9 (00:00)0,0 l/m²71%1033,30,0 km/h (0 Bft) O-SO4,8 km/h (1 Bft) SO (01:10)
Ummendorf-Fischbach558 m05:35-3,6-3,6 (05:20)-1,9 (00:00)0,0 l/m²75%1033,20,0 km/h (0 Bft) O-SO8,0 km/h (2 Bft) S (02:30)
Waldburg, Truchsessenweg707 m05:35-0,8-0,8 (05:30)1,6 (00:00)0,0 l/m²87%1031,01,6 km/h (1 Bft) N9,7 km/h (2 Bft) N (00:10)
Waltenhofen im Allgäu720 m05:35-4,9-5,2 (05:20)-1,9 (00:00)0,0 l/m²94%1031,50,0 km/h (0 Bft) SW14,5 km/h (3 Bft) SW (15:45)
Wangen, Hans-Schnitzer-Weg569 m05:35-1,4-1,4 (05:30)1,2 (00:00)0,0 l/m²84%1030,30,0 km/h (0 Bft) N8,0 km/h (2 Bft) N-NO (02:23)
Wangen, Südring548 m05:37-1,8-1,8 (05:26)0,3 (00:00)0,0 l/m²90%1030,90,0 km/h (0 Bft) NO6,5 km/h (2 Bft) NO (03:55)
Wangen-Leupolz612 m05:39-3,2-3,2 (05:11)-0,5 (00:02)0,0 l/m²89%1032,93,2 km/h (1 Bft) N-NO6,5 km/h (2 Bft) N (01:19)
Warthausen-Birkenhard581 m05:39-1,9-1,9 (05:35)0,7 (00:00)0,0 l/m²88%1032,48,6 km/h (2 Bft) N11,9 km/h (3 Bft) N-NO (02:42)
Weingarten500 m05:35-1,2-1,2 (05:05)1,3 (00:00)0,0 l/m²88%1031,50,0 km/h (0 Bft) NO0,0 km/h (0 Bft) N-NO (00:00)
Winterlingen785 m05:30-1,2-2,0 (00:00)0,0 (04:30)0,0 l/m²80%1030,92,9 km/h (1 Bft) N-NO5,8 km/h (2 Bft) NO (04:40)

niederschlagsdatenbank | info | login - erfassung

Sollten Sie Interesse haben, an der Niederschlagsdatenbank teilzunehmen, finden Sie > hier < weitere Informationen.
Datum: . . Kalender
Anmerkung:0,0 = nicht messbarer Niederschlag
 -  = kein Niederschlag
 k  = kumulierter Niederschlag

< 21.07.201323.07.2013 >


Niederschlagswerte vom 22.07.2013    -    derzeit 132 Stationen

Die Niederschlagswerte des gewählten Tages lassen sich durch Klicken auf das Datum sortieren.
Die Angaben sind in l/m².

Station19.07.20.07.21.07.22.07.23.07.24.07.25.07.Bemerkung 22.07.
Achstetten Hauptstraße-------
Aichstetten Ulmenstraße 7-------
Aichstetten-Nestbaum Nestbaum-----2,0-
Albbruck Bahnhofstraße-----3,04,0
Sonne pur u. Windstill +34° Nacht +19°
Allmendingen Querqueviller Ring 6----0,05,12,5
Amstetten-Reutti Gassenäcker 13----0,042,88,6
Aulendorf Steinenbacher Weg 33-----6,02,9
Aulendorf-Blönried Heuweg 32----0,03,90,0
Bachhagel Meisenweg 3-------
Bad Buchau Hanfweiher 1-------
Bad Krozingen Im Unteren Stollen-------
Bad Saulgau Walserweg----8,513,54,5
Bad Saulgau-Hochberg Lampertsweiler Straße 12----2,921,15,5
Bad Saulgau-Steinbronnen Forchenhain 6-------
Bad Schussenried Konradstraße----0,86,52,4
Bad Schussenried Lortzingstrasse----0,37,52,5
Bad Schussenried Klosterstraße----1,06,53,5
Bad Schussenried Theodor-Storm-Strasse-------
Bad Schussenried-Hopferbach Unterer Öschweg 16/1-------
Bad Schussenried-Lufthütte Hauptgasse 17-------
Bad Schussenried-Sattenbeuren Ortsstraße 7-------
Bad Schussenried-Schwaigfurt Schwaigfurt 2----0,17,04,0
Bad Waldsee-Haisterkirch Zur Spitzenkapelle 1----0,03,61,1
+14,5/+31,4°C, HITZETAG, fast ungetrübter Sonnenschein, von W bis S [weiterlesen...]
Bad Wurzach-Seibranz Kimpflerhof 2 -------
Bad Wurzach-Ziegelbach Ziegelbach-Greut 5-----6,4-
Baienfurt Untere Bergstrasse 7----1,010,0-
Sonne pur
Balzheim Hinterm Liess 19-------
Berg-Kleintobel Kleintobel----1,88,9-
Biberach Amriswilstrasse----0,04,24,2
Biberach Strölinweg-------
Biberach Erlenweg----0,34,04,0
Biberach Neue Heimat 5-------
Biberach Mittelbergstraße 9-------
Biberach Auf dem Lindele-------
Biberach-Bergerhausen Löcherstr.1----0,83,51,5
Bierstetten Schloßbühl 6----8,016,02,8
Blaubeuren-Pappelau Sotzenhauserstr.7-----2,01,0
Bonndorf Im Tännle 12-------
Bühlertal Wolfinstraße 16-------
Dornstadt-Tomerdingen Maienweg 9----0,05,21,5
Dürnau Dorfäckerweg 5----8,017,0-
Eberhardzell Lilienweg----0,15,01,5
Ebersbach-Roßwälden Appenwiesen-------
Ehingen Rosenstraße----0,06,07,5
Ehingen Zanderstraße-----5,57,0
Ehingen Schlaufenbühl----0,06,28,3
Ehingen Schillerstraße----0,05,58,5
Ehingen-Herbertshofen Tobelweg 9-------
Eislingen Albstraße 125----9,632,85,5
Erbach-Bach Hauptstraße 24-----2,00,5
Erlenmoos Haldenweg 15----0,81,50,3
Füramoos Hungersberg 10,00,00,0-0,72,70,0
Gutenzell Kleinser Berg 1----1,02,06,0
Gutenzell-Hürbel Bei der Sägmühle 1-------
Herbertingen Drosselweg----0,011,51,0
Herbertingen Hirschstrasse-----10,0-
Hochdorf-Schweinhausen Lindenweg 2-----4,83,8
Hohentengen-Bremen Bremer Halde 4----0,020,09,5
Holzheim-Ellerbach Kirchstraße 3-------
Horgenzell-Ringgenweiler Ringgenweiler 620----3,812,7-
Hüttisheim Ulmer Weg 2----0,04,08,5
Illerkirchberg Mahdauweg 20-----6,50,9
Illerrieden-Wangen Am Muckenberg 12-------
Immenstaad Stockwiesen 10-------
Inzigkofen Butzenweg 1----2,530,51,0
Isny Am Dreifingerbach 39-----1,4-
Kanzach Anna von Russegg-Weg-------
Kirchberg Rosenstr. 7----3,91,24,0
Langenau Wasserstr. 54-1-------
Langenau Narzissenweg 1-------
Langenau Edith-Stein-Straße-------
Langenenslingen Schattenweiler Str. 18----6,47,09,2
Leutkirch Unterer Auenweg 25-----5,6-
Leutkirch Nachtigallenweg 28-----5,0-
Leutkirch-Adrazhofen Bergstraße 20-----12,8-
Luzern Schönbühlring-------
Merklingen Millergasse 9-------
Mietingen Seerosenweg 10-------
Mietingen-Walpertshofen Bussenweg 31-----2,02,0
Mittelbiberach-Reute Rindenmooser Straße 2-------
Moosburg Käserweg 5----9,113,20,0
Nichts neues, weiterhin hochsommerlich.
Münsingen-Bremelau Teichackerhof 1-------
Münsingen-Rietheim In der Lise 20----0,240,4-
Neresheim Alfred-Delp-Straße 8----0,515,016,3
Oberboihingen Friedhofstraße-------
Oberdischingen Normannenstraße 7-------
Ochsenhausen Ehrensberger Weg 5----0,22,10,8
Öpfingen Hauptstraße 99----0,04,04,3
Ostrach Uhlandweg-----9,00,5
Ostrach Schillerstraße 19-------
Ostrach Denkmalweg -------
Pfaffenhofen Lerchenweg 13-------
Pfaffenhofen-Kadeltshofen Mühlbachstraße 4----2,00,00,0
Pfullendorf Am Schweizersbild -------
Rangendingen Donaustraße 19-----4,0-
Ravensburg Bleicherstraße----2,011,9-
Ravensburg Springerstraße    neu  -------
Ravensburg-Schmalegg St.-Magdalena-Ring 42----2,88,2-
Ravensburg-Wernsreute Wernsreute 25-------
Ravensburg-Weststadt Karl-Erb-Ring 142----2,010,6-
Regensburg Orleansstraße 3-------
Rheinfelden-Herten Eggbergstr. 10a-------
Riedhausen Blütenweg 13-----13,40,2
Temp. +14,7 °C / + 31,8 °C, Windböen aus NO bis 24,1 km/h
Riedlingen Berliner Str. 41-------
Riedlingen-Neufra Panoramaweg-------
Riedlingen-Neufra Riedlinger Strasse-------
Ringschnait Gustav-Reich-Strasse 20-------
Schelklingen-Gundershofen Schwarzer-Straße 14-------
Schemmerberg Drosselweg 9-----4,52,0
Schlier-Hintermoos Bergweg-------
Schwörstadt Schulstrasse 19-------
Seekirch Haldenberg 7-------
Sigmaringendorf Weingartenstraße 7----0,413,00,9
Tuttlingen Möhringerstraße 11---0,710,55,60,7
Nachdem es am 3. des Monats zuletzt geregnet hatte, gab es heute einen [weiterlesen...]
Regen Gewitter
Ulm Eberhardtstraße 75-------
Ulm-Eggingen Dorfstraße 36-------
Ummendorf Tulpenweg----0,06,23,9
Uttenweiler-Ahlen Seekircher Straße 8----1,26,51,2
Vöhringen (Schwarzwald) Drosselweg 3-------
Wald-Hohenzollern Steckeler Höfe-------
Waldburg Kastanienweg11-----25,0-
Wangen-Atzenberg Keplerweg 3-------
Wangen-Bergerhöhe Berg 2-----2,8-
Warthausen An der Schloßhalde ----0,34,0-
Warthausen Schwabenwiesen ----0,73,53,5
Warthausen-Barabein Barabein 20-------
Warthausen-Oberhöfen Panoramaweg -------
Weingarten Laurastraße----1,58,00,0
Weingarten Hoyerstraße-------
Weingarten Marienstraße----1,513,0-
Wolfegg-Veesers Veesers 1-----30,2-
Wolpertswende Aulendorfer Str. 17----0,96,70,0

Stillgelegte Niederschlagsstationen    -    derzeit 52 Stationen

StationLetzte Meldung19.07.20.07.21.07.22.07.23.07.24.07.25.07.Bemerkung 22.07.
Allmannsweiler Eggatsweilerstr.2802.09.2014-------
Aulendorf-Rugetsweiler Erikaweg 325.07.20133,5----4,09,0
Aulendorf-Zollenreute Imterstraße 1209.02.2019-------
Bad Bellingen Rheinstraße 7613.11.2019-------
Bad Saulgau Willi-Burth-Straße19.09.2011-------
Bad Saulgau Eichendorffweg28.03.2013-------
Bad Saulgau Seewattenstraße 12815.01.2014-------
Bad Saulgau-Lampertsweiler Valentinstr. 2618.02.2015----10,619,86,3
Bad Schussenried-Steinhausen Drosselgasse 4/126.09.2012-------
Bad Waldsee-Haisterkirch Hittelkofer Straße 102.07.2020-------
Bad Waldsee-Michelwinnanden Michelberg 531.12.2014---2,72,74,56,7
abends, 22.00 kurzer kräftiger regenschauer
Regen
Bad Waldsee-Osterhofen Hochwaldgasse 406.03.2015-----6,51,0
Bad Waldsee-Steinach Hofraingasse 1510.11.2013----1,05,03,0
Bad Wurzach-Dietmanns Postweg 519.01.2019----6,04,03,5
Bad Wurzach-Haidgau Wengener Straße 507.10.2012-------
Bergatreute Bolanden 113.02.2012-------
Betzenweiler Offinger Straße 505.01.2017----7,511,8-
Burgrieden Am Nonnenberg 328.10.2013-----1,81,4
Burgrieden-Rot Schmiedgasse 518.09.2013-----2,0-
Dettingen a. d. Iller Schleifweg 431.10.2019----1,01,01,5
Eberhardzell Schillerstraße05.07.2010-------
Ehingen Am Elzengraben17.06.2016-------
Gammertingen Schillerstraße 2216.01.2016-----13,010,0
Griesingen Blumenstraße 906.10.2015-----5,110,5
Günzburg Erlenbadweg 34 1/231.12.2010-------
Hoßkirch Kirchstraße 805.01.2018-----8,3-
Ingoldingen-Grodt Ingoldinger Weg 1919.11.2016-----7,011,0
Kisslegg Kirchmoosstraße02.05.2011-------
Krauchenwies-Hausen Rosenrain 123.11.2013-----14,214,8
Kressbronn Irisstraße 410.03.2010-------
Kreuzthal-Steinberg-Alpe Im Kreuzbachthal 8504.08.2020-----2,1-
Leutkirch-Ottmannshofen Spitalriedstraße 527.07.2012-------
Leutkirch-Rotis Rotis 5/208.05.2016-------
Leutkirch-Wuchzenhofen Untere Kirchstraße 18/119.09.2016-----16,5-
Mietingen Hangweg 1530.12.2017----0,01,52,0
Mössingen-Bästenhardt Weissdornweg 721.07.2014-------
Ostrach Heiligenberger Straße19.08.2013-----5,2-
Pfullendorf Ringstraße 18.03.2012-------
Ravensburg Olgastraße30.10.2016----1,710,8-
Seltmans Amselweg 2209.04.2013-------
Stuttgart-Bad Cannstatt Beuthener Str. 6703.02.2013-------
Stuttgart-Möhringen Glashütter Weg 1023.04.2017----16,040,0-
Klar + Sonne,+16°C, 47%->+30°C,1015hPa.,->SO
Stuttgart-Rohr Hirschsprung 307.11.2012-------
Talheim Im Schecken 2121.08.2016----0,09,10,0
Nachts wolkenloser und sternenklarer Himmel bei Temperaturen um 15 C° [weiterlesen...]
Tannheim Eggmannstr. 42 22.10.2017-----2,10,0
>Tmin +13,6<>Tmax +32,2°C<
Tettnang-Ramsbach Jahnstr. 24/126.03.2011-------
Tuttlingen-Möhringen Belchenstraße01.01.2015---1,05,52,00,0
Wieder ein „Tropfen auf den heissen Stein“ der in Kürze aufgetroc [weiterlesen...]
Regen Gewitter
Ummendorf Bergstraße23.10.2017-----5,23,5
Ummendorf Friedrich-Schiller-Str.19.01.2020-------
Vogt Mühlwies 1822.05.2015-----23,0-
Weingarten Bischof-Sproll-Straße30.06.2011-------
Wilhelmsdorf Riedhauser Straße 28.10.2012-------
Wilhelmsdorf Seefeld20.08.2013-----23,0-
Wurmlingen An der Steig 3014.10.2016-------
Die Niederschlagswerte des gewählten Tages lassen sich durch Klicken auf das Datum sortieren.
Die Angaben sind in l/m².

Wetterbeobachtungen Legende:

  • Regen
  • Nieselregen
  • Schneeregen
  • Schnee
  • Graupel
  • Eiskörner
  • Hagel
  • Bodennebel
  • Gewitter
  • Nebelnässe
  • Schneegriesel

Grafische Darstellung der Tagesniederschläge vom 22.07.2013

< 21.07.201323.07.2013 >Monats- und Jahresniederschlag


 
wetterstationen
wetterstationen
- derzeit 101 Stationen
niederschlagsdatenbank
wetterstationen
- kartographische Darstellung
niederschlagsdatenbank
niederschlagsstationen
- derzeit 132 Stationen
niederschlagsdatenbank
niederschlagsstationen
- kartographische Darstellung
 
 
So. 7.30 Uhr - Mo. 7.30 Uhr (MEZ)
1.Ostrach
Denkmalweg
0,0 l/m²
 
  treffpunkt & service
--- Anzeigen --------------------------------
zugriffe:
insgesamt: 51.669.531
aktueller monat: 370
heute: 370
momentan online: 31
 
 
monatshöchstwert: 703.589
vorheriger monat: 490.970
gestern: 7.623
tageshöchstwert: 60.571
 
wetterwarte süd
 
konradstraße 3
info@wetterwarte-sued.com
roland roth
 
88427 bad schussenried